Date String (YYYY-MM-DD hh:mm:ss) UTC,Instrument flags,Ambient pressure (hPa),Sample flow (lpm),Bypass flow (lpm),Sample temperature (°C),Ambient temperature (°C),ASC tube jacket temperature (°C),LED temperature (°C),Box temperature (°C),Sample RH (%),Span deviation,Mass concentration (μg/m³),Mass concentration (μg/m³),Mass concentration (μg/m³)
DateTimeUTC,F1_M11,P_M11,Q1_M11,Q2_M11,T1_M11,T2_M11,T3_M11,T4_M11,T5_M11,U1_M11,ZSPAN_M11,X0_M11,X2_M11,X1_M11
2023-01-14 02:00:00,,0826.9,5.00,0.00,26.2,24.8,00.0,35.1,28.0,11.2,0004.1,0021.26,0013.60,0012.52
2023-01-14 02:01:00,,0826.8,5.00,0.00,26.2,24.7,00.0,35.1,28.0,11.5,0004.3,0021.26,0013.60,0012.50
2023-01-14 02:02:00,,0826.9,5.00,0.00,26.2,24.7,00.0,35.1,28.0,11.3,0004.2,0020.91,0013.61,0012.50
2023-01-14 02:03:00,,0826.9,5.01,0.00,26.2,24.7,00.0,35.1,28.0,11.2,0004.3,0020.27,0013.64,0012.55
2023-01-14 02:04:00,,0826.8,5.00,0.00,26.2,24.8,00.0,35.1,28.0,11.2,0004.4,0020.38,0013.82,0012.69
2023-01-14 02:05:00,,0826.7,4.99,0.00,26.2,24.8,00.0,35.1,28.0,11.1,0005.1,0020.68,0013.92,0012.75
2023-01-14 02:06:00,,0826.8,5.00,0.00,26.2,24.8,00.0,35.1,28.0,11.0,0005.5,0020.61,0013.86,0012.70
2023-01-14 02:07:00,,0826.7,4.99,0.00,26.2,24.8,00.0,35.1,28.0,10.9,0005.1,0021.01,0013.81,0012.67
2023-01-14 02:08:00,,0826.8,4.99,0.00,26.2,24.7,00.0,35.1,28.0,10.9,0005.3,0020.91,0013.68,0012.57
2023-01-14 02:09:00,,0826.7,5.00,0.00,26.2,24.7,00.0,35.1,28.0,10.8,0006.1,0020.55,0013.66,0012.54
2023-01-14 02:10:00,,0826.7,4.99,0.00,26.2,24.7,00.0,35.1,28.0,10.9,0006.3,0020.25,0013.57,0012.48
2023-01-14 02:11:00,,0826.8,5.00,0.00,26.2,24.7,00.0,35.1,27.9,11.0,0006.4,0021.70,0013.50,0012.44
2023-01-14 02:12:00,,0826.7,5.00,0.00,26.2,24.7,00.0,35.0,27.9,11.0,0006.5,0022.23,0013.50,0012.47
2023-01-14 02:13:00,,0826.7,5.01,0.00,26.2,24.7,00.0,35.0,27.9,11.0,0006.5,0022.16,0013.46,0012.48
2023-01-14 02:14:00,,0826.7,4.99,0.00,26.2,24.7,00.0,35.0,28.0,10.9,0006.3,0022.20,0013.47,0012.47
2023-01-14 02:15:00,,0826.7,5.00,0.00,26.2,24.7,00.0,35.0,28.0,11.0,0006.1,0022.03,0013.35,0012.35
2023-01-14 02:16:00,,0826.7,5.00,0.00,26.2,24.8,00.0,35.0,28.0,11.1,0005.9,0021.69,0013.03,0012.08
2023-01-14 02:17:00,,0826.7,5.01,0.00,26.2,24.8,00.0,35.0,28.0,11.1,0005.8,0021.30,0012.79,0011.85
2023-01-14 02:18:00,,0826.7,5.01,0.00,26.2,24.8,00.0,35.0,28.0,11.1,0005.8,0020.68,0012.64,0011.69
2023-01-14 02:19:00,,0826.7,5.00,0.00,26.2,24.8,00.0,35.0,28.0,11.0,0006.0,0020.49,0012.51,0011.53
2023-01-14 02:20:00,,0826.7,5.01,0.00,26.2,24.8,00.0,35.0,28.0,11.1,0005.8,0021.50,0012.31,0011.30
2023-01-14 02:21:00,,0826.7,5.00,0.00,26.2,24.8,00.0,35.0,28.0,11.0,0005.2,0021.76,0012.15,0011.13
2023-01-14 02:22:00,,0826.7,5.01,0.00,26.2,24.8,00.0,35.0,28.0,11.0,0004.5,0020.49,0011.99,0010.96
2023-01-14 02:23:00,,0826.6,5.00,0.00,26.2,24.8,00.0,35.0,28.0,11.0,0004.6,0019.53,0011.83,0010.77
2023-01-14 02:24:00,,0826.7,4.99,0.00,26.2,24.8,00.0,35.0,28.0,11.0,0005.0,0020.08,0011.67,0010.61
2023-01-14 02:25:00,,0826.7,5.00,0.00,26.2,24.8,00.0,35.0,28.0,10.9,0005.6,0019.88,0011.39,0010.36
2023-01-14 02:26:00,,0826.7,4.98,0.00,26.2,24.8,00.0,35.0,28.0,10.8,0006.0,0019.47,0011.16,0010.19
2023-01-14 02:27:00,,0826.6,4.99,0.00,26.2,24.8,00.0,35.0,28.0,10.7,0006.2,0019.39,0011.21,0010.22
2023-01-14 02:28:00,,0826.7,5.01,0.00,26.2,24.7,00.0,35.0,28.0,10.6,0006.2,0019.66,0011.35,0010.36
2023-01-14 02:29:00,,0826.7,5.00,0.00,26.2,24.7,00.0,35.0,28.0,10.6,0006.3,0020.21,0011.36,0010.38
2023-01-14 02:30:00,,0826.7,5.01,0.00,26.2,24.7,00.0,35.0,28.0,10.5,0006.3,0020.09,0011.28,0010.35
2023-01-14 02:31:00,,0826.6,5.01,0.00,26.2,24.7,00.0,35.0,28.0,10.5,0006.1,0018.69,0011.28,0010.41
2023-01-14 02:32:00,,0826.5,5.01,0.00,26.2,24.7,00.0,35.0,28.0,10.6,0006.5,0018.18,0011.33,0010.46
2023-01-14 02:33:00,,0826.5,5.00,0.00,26.2,24.7,00.0,35.0,28.0,10.8,0006.7,0017.77,0011.41,0010.56
2023-01-14 02:34:00,,0826.5,5.00,0.00,26.1,24.7,00.0,35.0,27.9,10.6,0006.6,0018.70,0011.65,0010.81
2023-01-14 02:35:00,,0826.5,5.00,0.00,26.1,24.6,00.0,35.0,27.9,10.5,0006.6,0018.54,0012.02,0011.16
2023-01-14 02:36:00,,0826.5,5.00,0.00,26.1,24.5,00.0,35.0,27.8,10.5,0006.4,0019.48,0012.53,0011.63
2023-01-14 02:37:00,,0826.5,5.01,0.00,26.1,24.4,00.0,35.0,27.8,10.6,0006.2,0020.62,0013.05,0012.11
2023-01-14 02:38:00,,0826.5,5.00,0.00,26.0,24.3,00.0,35.0,27.7,10.7,0006.1,0020.86,0013.42,0012.53
2023-01-14 02:39:00,,0826.5,5.00,0.00,26.0,24.3,00.0,34.9,27.7,10.8,0006.1,0021.38,0013.77,0012.88
2023-01-14 02:40:00,,0826.5,4.99,0.00,26.0,24.3,00.0,34.9,27.7,10.9,0006.1,0021.59,0014.17,0013.25
2023-01-14 02:41:00,,0826.5,5.01,0.00,26.0,24.4,00.0,34.9,27.8,10.9,0006.0,0021.75,0014.54,0013.62
2023-01-14 02:42:00,,0826.5,5.00,0.00,26.0,24.4,00.0,34.9,27.8,10.9,0006.2,0022.25,0014.90,0013.93
2023-01-14 02:43:00,,0826.4,5.00,0.00,26.0,24.5,00.0,34.9,27.8,11.3,0006.1,0022.87,0015.05,0014.09
2023-01-14 02:44:00,,0826.3,4.99,0.00,26.0,24.5,00.0,34.9,27.8,11.6,0006.0,0023.02,0015.11,0014.15
2023-01-14 02:45:00,,0826.4,5.00,0.00,26.0,24.5,00.0,34.9,27.8,11.8,0005.7,0022.04,0015.13,0014.18
2023-01-14 02:46:00,,0826.5,5.01,0.00,26.0,24.5,00.0,34.9,27.8,12.0,0005.6,0021.80,0015.05,0014.11
2023-01-14 02:47:00,,0826.5,4.99,0.00,26.0,24.5,00.0,34.9,27.8,11.9,0005.4,0021.02,0014.78,0013.88
2023-01-14 02:48:00,,0826.5,5.00,0.00,26.0,24.5,00.0,34.9,27.8,11.7,0005.3,0019.96,0014.45,0013.58
2023-01-14 02:49:00,,0826.4,5.00,0.00,26.0,24.5,00.0,34.9,27.8,11.6,0005.2,0020.13,0014.30,0013.40
2023-01-14 02:50:00,,0826.4,5.00,0.00,26.0,24.5,00.0,34.9,27.8,11.4,0005.0,0020.17,0014.22,0013.30
2023-01-14 02:51:00,,0826.4,5.00,0.00,26.0,24.5,00.0,34.9,27.8,11.4,0004.6,0019.68,0014.11,0013.18
2023-01-14 02:52:00,,0826.4,4.99,0.00,26.0,24.5,00.0,34.9,27.8,11.4,0004.5,0019.55,0013.99,0013.04
2023-01-14 02:53:00,,0826.4,5.01,0.00,26.0,24.5,00.0,34.8,27.8,11.3,0004.4,0019.58,0013.95,0012.98
2023-01-14 02:54:00,,0826.4,5.00,0.00,26.0,24.5,00.0,34.8,27.8,11.2,0004.7,0019.67,0014.08,0013.07
2023-01-14 02:55:00,,0826.3,5.01,0.00,26.0,24.5,00.0,34.8,27.8,11.2,0004.6,0020.17,0014.29,0013.27
2023-01-14 02:56:00,,0826.2,4.98,0.00,26.0,24.5,00.0,34.8,27.8,11.2,0004.6,0021.88,0014.39,0013.41
2023-01-14 02:57:00,,0826.2,5.01,0.00,26.0,24.5,00.0,34.8,27.8,11.2,0004.6,0022.19,0014.57,0013.60
2023-01-14 02:58:00,,0826.2,4.98,0.00,26.0,24.5,00.0,34.8,27.8,11.1,0004.3,0022.58,0014.93,0013.95
2023-01-14 02:59:00,,0826.3,5.01,0.00,26.0,24.5,00.0,34.8,27.8,11.0,0004.0,0023.23,0015.43,0014.38
